User: anonymous   Login
Location: Musselshell
(46.5176°N, 108.0911°W)
Time: 08:36:33
(UTC+00:00)
Language:

PRISM - Orbit

View from above orbital plane
View from above orbital plane
View from above satellite
View from above satellite

Ground track
Ground track

The orbit data is extracted from the following two-line orbital elements,

1 33493U 09002B   22178.21847604  .00003200  00000-0  26283-3 0  9994
2 33493  98.2250 165.3453 0016099 137.4947 222.7524 14.99879050730452
Epoch (UTC): 27 June 2022 05:14:36
Eccentricity: 0.0016099
inclination: 98.2250°
perigee height: 556 km
apogee height: 578 km
right ascension of ascending node: 165.3453°
argument of perigee: 137.4947°
revolutions per day: 14.99879050
mean anomaly at epoch: 222.7524°
orbit number at epoch: 73045

The dashed part of the orbit path shows where the satellite is in the earth's shadow,  

DLR